Terminal Aerodrome Forecast
Issued by NWS

Home | Current Version | Previous Version | Text Only | Print | Product List | Glossary On
Versions: 1 2 3 4 5 6 7 8 9 10 11 12 13 14
000
FTUS45 KTFX 230328 AAA
TAFBZN
TAF AMD
KBZN 230328Z 2303/2324 VRB06KT P6SM OVC040
     FM230600 VRB06KT 3SM -SN BR SCT010 OVC030
     FM230900 VRB06KT P6SM FEW005 BKN030
     FM231700 VRB06KT 3SM -SN BR SCT005 OVC010=

USA.gov is the U.S. government's official web portal to all federal, state and local government web resources and services.